This demonstration page uses our WeatherBlox Daily Observations layout. Learn more.

Left ArrowRight Arrow

Hourly Observations for April 9, 2015

Temp ( °F °C ) Dew Point ( °F °C ) Humidity (%) Winds ( mph kmh ) Pressure ( in mb ) Visibility ( mi km ) Precip ( " mm )
12:53 am 00:53 Clear 34 1.1 28 -2.2 79 79 N N/A 30.06 1018 10 16 N/A
1:53 am 01:53 Mostly Clear 30 -1.1 26 -3.3 85 85 WNW 3 6 30.07 1018 10 16 N/A
2:53 am 02:53 Partly Cloudy 29 -1.7 26 -3.3 89 89 SW 3 6 30.08 1019 10 16 N/A
3:53 am 03:53 Clear 30 -1.1 27 -2.8 88 88 W 5 7 30.08 1019 10 16 N/A
4:53 am 04:53 Clear 28 -2.2 25 -3.9 88 88 WSW 3 6 30.09 1019 10 16 N/A
5:53 am 05:53 Clear 27 -2.8 25 -3.9 92 92 SW 3 6 30.10 1019 10 16 N/A
6:53 am 06:53 Sunny 30 -1.1 28 -2.2 92 92 VRB 5 7 30.11 1020 10 16 N/A
7:53 am 07:53 Sunny 32 undefined 30 -1.1 92 92 W 7 11 30.13 1020 10 16 N/A
8:53 am 08:53 Sunny 40 4.4 34 1.1 79 79 WSW 8 13 30.13 1020 10 16 N/A
9:53 am 09:53 Sunny 47 8.3 34 1.1 61 61 SW 13 20 30.11 1020 10 16 N/A
10:53 am 10:53 Sunny 51 10.6 34 1.1 52 52 WSW 15 24 30.11 1020 10 16 N/A
11:53 am 11:53 Sunny 55 12.8 32 undefined 42 42 WSW 12 19 30.10 1019 10 16 N/A
12:53 pm 12:53 Mostly Sunny 56 13.3 28 -2.2 34 34 N N/A 30.08 1019 10 16 N/A
1:53 pm 13:53 Sunny 60 15.6 25 -3.9 26 26 WSW 12 19 30.06 1018 10 16 N/A
2:53 pm 14:53 Sunny 60 15.6 25 -3.9 26 26 VRB 3 6 30.04 1017 10 16 N/A
3:53 pm 15:53 Sunny 61 16.1 23 -5 23 23 undefined N/A 30.01 1016 10 16 N/A
4:53 pm 16:53 Sunny 62 16.7 22 -5.6 21 21 N N/A 30.01 1016 10 16 N/A
5:53 pm 17:53 Sunny 61 16.1 20 -6.7 20 20 N N/A 30.01 1016 10 16 N/A
6:53 pm 18:53 Sunny 61 16.1 18 -7.8 19 19 N N/A 30.00 1016 10 16 N/A
7:53 pm 19:53 Sunny 55 12.8 27 -2.8 34 34 ESE 6 9 30.00 1016 10 16 N/A
8:53 pm 20:53 Clear 42 5.6 25 -3.9 51 51 SSE 7 11 30.01 1016 10 16 N/A
9:53 pm 21:53 Clear 41 5 25 -3.9 53 53 ESE 3 6 30.01 1016 10 16 N/A
10:53 pm 22:53 Clear 43 6.1 23 -5 45 45 SSW 3 6 29.99 1016 10 16 N/A
11:53 pm 23:53 Clear 38 3.3 23 -5 55 55 N 3 6 29.99 1016 10 16 N/A

Powered by AerisWeather